CAPE
0 33 17 2 17 1 0 0 0 0 0 0 0 0 0 0 0 0 0 0 0 0 0 0 416 635 1123 1207 1141 908 971 906 781 588 971 681 636 822 716 869 1039 983 912 686
0 18 5 3 24 45 3 0 0 0 0 0 0 0 0 0 0 0 0 0 0 0 0 0 0 149 1254 1412 1284 1188 1063 1123 1002 845 1000 1208 928 910 1104 1016 1181 1201 1037 837
1 0 0 5 14 5 35 0 0 0 0 0 0 0 0 0 0 0 0 0 0 0 0 0 0 34 998 1383 1476 1260 1278 1348 1215 1130 951 884 570 556 776 754 1038 1212 1188 945
7 0 0 26 8 7 4 0 0 0 0 0 0 0 0 0 0 0 0 0 0 0 0 0 0 0 790 1236 1419 1346 1284 1529 1450 1384 1104 970 1168 1073 1200 1220 1176 1107 1010 1087
0 3 16 16 2 0 11 5 39 23 11 0 0 0 0 0 0 0 0 0 0 0 0 0 0 0 213 1062 1269 1331 1241 1312 1533 1445 1330 967 1078 1341 1096 977 843 760 820 749
1 0 3 10 14 0 5 18 1 11 40 25 0 0 0 0 0 0 0 0 0 0 0 0 0 0 0 752 1079 1217 1216 1135 1402 1381 1323 1155 1042 1029 1059 864 615 693 700 840
0 0 0 0 20 51 37 32 7 2 18 33 0 0 0 0 0 0 0 0 0 0 0 0 0 0 0 121 846 1062 1111 1076 1230 1333 1251 1173 1067 951 939 805 709 525 647 907
0 0 0 0 21 8 62 14 1 0 14 1 0 19 0 0 0 0 0 0 0 0 0 0 0 0 0 0 676 1023 1123 1103 1217 1317 1263 1191 1085 960 934 661 718 624 566 847
0 0 0 0 1 2 3 19 1 5 5 0 0 0 0 0 0 0 0 0 0 0 0 0 0 0 0 0 507 1091 1161 1212 1175 1329 1340 1240 1106 934 884 625 582 576 562 710
0 5 0 0 41 16 14 0 3 2 0 0 0 0 0 0 0 0 0 0 0 0 0 0 0 0 0 0 175 1179 1262 1269 1210 1225 1326 1315 1185 939 744 558 495 506 482 492
6 5 0 0 41 34 18 53 18 5 1 0 8 0 0 0 0 0 0 0 0 0 0 0 0 0 0 0 0 766 1248 1371 1307 1221 1307 1296 1208 1007 632 550 464 420 368 284
0 0 0 0 0 3 13 3 10 2 0 4 13 0 0 0 0 0 0 0 0 0 0 0 0 0 0 0 0 0 467 1273 1382 1391 1400 1360 1216 995 658 665 530 366 310 274
1 0 0 0 0 0 5 3 4 2 3 37 0 0 0 0 0 0 0 0 0 0 0 0 0 0 0 0 0 0 0 19 992 1435 1447 1440 1211 1017 838 682 489 269 342 418
32 0 0 0 0 0 1 1 6 4 0 0 6 0 0 0 0 0 0 0 0 0 0 0 0 0 0 0 0 0 0 0 0 404 1510 1561 1302 1166 1060 780 411 307 363 325
0 0 0 0 0 3 2 3 4 4 6 1 0 0 0 0 2 0 0 0 0 0 0 0 0 0 118 3 4 0 0 0 0 58 1538 1706 1623 1337 1089 627 276 200 201 179
3 0 11 0 3 5 6 1 1 0 3 7 0 0 0 0 0 0 0 0 0 0 0 0 0 0 229 169 27 1 0 1 0 20 385 1224 1447 1199 662 366 140 72 30 0
5 1 2 0 3 0 0 0 0 0 0 0 0 0 0 0 0 0 0 0 0 0 0 0 0 0 0 101 68 6 1 0 1 0 1 4 214 514 210 91 15 0 0 0
0 0 3 0 0 0 0 0 0 0 0 0 0 0 0 0 0 0 0 0 0 0 0 0 0 0 0 0 0 0 0 0 0 1 1 0 0 0 1 0 0 0 0 0
0 0 6 15 0 0 0 0 0 0 0 0 0 0 0 2 3 0 0 0 0 0 0 0 0 0 0 0 0 0 0 0 0 1 1 0 0 0 0 0 0 0 0 0
0 0 0 0 9 0 0 0 0 0 0 0 0 0 0 1 0 0 0 0 0 0 0 0 0 0 0 0 0 0 0 0 0 0 0 0 0 0 0 0 0 0 0 0
1 12 0 0 1 0 0 0 0 0 0 0 0 0 0 0 0 0 0 0 0 0 0 0 0 0 0 0 7 5 0 0 0 0 0 0 0 0 0 0 0 0 0 0
0 0 0 0 0 0 0 0 0 0 0 0 0 0 0 0 0 0 0 0 0 0 0 0 0 0 0 0 0 18 2 0 0 0 0 0 0 0 0 0 0 0 0 0
0 0 10 9 0 0 0 0 0 0 0 0 0 0 0 0 0 0 0 0 0 0 0 0 0 0 1 0 0 0 0 0 0 0 0 0 0 0 0 0 0 0 0 0
13 8 16 30 26 7 0 0 0 0 0 0 0 0 0 0 0 0 0 0 0 0 0 0 0 0 0 0 0 0 0 0 0 0 0 0 0 0 0 0 0 0 0 0
0 0 0 0 0 16 11 21 1 1 0 0 0 0 0 0 0 0 0 0 0 0 0 0 0 0 0 0 0 0 0 1 0 0 0 0 0 0 0 0 0 0 0 0
0 0 0 0 0 0 0 0 0 0 0 0 0 0 0 0 0 0 0 0 0 0 0 0 0 0 0 0 0 0 0 1 0 0 0 0 0 0 0 0 1 0 0 0
CIN
-0 -14 -15 -0 -1 -0 -0 -0 -0 -0 -0 -0 -0 -0 -0 -0 -0 -0 -0 -0 -0 -0 -0 -1 -182 -183 -185 -277 -346 -405 -398 -400 -322 -360 -285 -306 -355 -311 -335 -322 -272 -256 -272 -316
-0 -0 -0 -0 -1 -2 -0 -0 -0 -0 -0 -0 -0 -0 -0 -0 -0 -0 -0 -0 -0 -0 -0 -0 -0 -216 -173 -240 -305 -338 -390 -381 -347 -343 -328 -245 -272 -297 -250 -267 -235 -208 -226 -286
-1 -0 -0 -0 -0 -0 -0 -0 -0 -0 -0 -0 -0 -0 -0 -0 -0 -0 -0 -0 -0 -0 -0 -0 -0 -239 -187 -203 -314 -313 -345 -368 -360 -322 -285 -274 -326 -356 -300 -341 -270 -259 -255 -294
-1 -0 -0 -0 -0 -0 -0 -0 -0 -0 -0 -0 -0 -0 -0 -0 -0 -0 -0 -0 -0 -0 -0 -0 -0 -0 -210 -213 -299 -333 -323 -357 -342 -291 -272 -289 -302 -313 -304 -284 -265 -274 -297 -276
-0 -0 -0 -0 -0 -0 -0 -13 -1 -0 -1 -0 -0 -0 -0 -0 -0 -0 -0 -0 -0 -0 -0 -0 -0 -0 -353 -243 -264 -355 -342 -370 -329 -330 -317 -343 -313 -302 -278 -256 -308 -333 -311 -331
-0 -0 -0 -0 -0 -0 -0 -0 -0 -33 -2 -1 -0 -0 -0 -0 -0 -0 -0 -0 -0 -0 -0 -0 -0 -0 -0 -258 -268 -355 -361 -360 -338 -349 -338 -345 -354 -334 -282 -316 -398 -361 -341 -284
-0 -0 -0 -0 -0 -0 -0 -0 -0 -10 -22 -9 -0 -0 -0 -0 -0 -0 -0 -0 -0 -0 -0 -0 -0 -0 -0 -251 -263 -335 -391 -380 -365 -359 -348 -377 -377 -346 -379 -403 -415 -431 -378 -296
-0 -0 -0 -0 -0 -0 -0 -0 -0 -0 -5 -22 -0 -3 -0 -0 -0 -0 -0 -0 -0 -0 -0 -0 -0 -0 -0 -0 -325 -364 -396 -395 -397 -392 -377 -395 -400 -366 -369 -425 -418 -452 -455 -387
-0 -0 -0 -0 -4 -0 -0 -0 -4 -0 -0 -0 -0 -0 -0 -0 -0 -0 -0 -0 -0 -0 -0 -0 -0 -0 -0 -0 -350 -345 -384 -402 -435 -449 -429 -406 -402 -355 -372 -448 -450 -476 -496 -431
-0 -0 -0 -0 -1 -5 -0 -0 -0 -0 -0 -0 -0 -0 -0 -0 -0 -0 -0 -0 -0 -0 -0 -0 -0 -0 -0 -0 -417 -346 -388 -406 -451 -475 -446 -449 -444 -426 -408 -431 -460 -483 -518 -485
-0 -1 -0 -0 -1 -1 -0 -0 -16 -0 -0 -0 -1 -0 -0 -0 -0 -0 -0 -0 -0 -0 -0 -0 -0 -0 -0 -0 -0 -388 -363 -378 -403 -457 -451 -423 -410 -397 -396 -413 -471 -484 -484 -511
-0 -0 -0 -0 -0 -0 -32 -0 -1 -26 -0 -0 -8 -0 -0 -0 -0 -0 -0 -0 -0 -0 -0 -0 -0 -0 -0 -0 -0 -0 -439 -362 -383 -418 -410 -416 -440 -386 -402 -397 -446 -462 -478 -492
-3 -0 -0 -0 -0 -0 -0 -0 -0 -0 -0 -0 -3 -0 -0 -0 -0 -0 -0 -0 -0 -0 -0 -0 -0 -0 -0 -0 -0 -0 -0 -234 -418 -338 -340 -372 -378 -374 -386 -399 -425 -473 -416 -377
-8 -0 -0 -0 -0 -0 -0 -0 -0 -0 -0 -0 -0 -0 -0 -0 -0 -0 -0 -0 -0 -0 -0 -0 -0 -0 -0 -0 -0 -0 -0 -0 -0 -550 -281 -284 -344 -353 -352 -376 -405 -396 -368 -344
-0 -0 -0 -0 -0 -0 -0 -0 -0 -0 -0 -0 -0 -0 -0 -0 -27 -0 -0 -0 -0 -0 -0 -0 -0 -0 -642 -527 -852 -0 -0 -0 -0 -667 -250 -210 -272 -285 -277 -328 -363 -333 -306 -287
-0 -0 -5 -0 -11 -8 -0 -0 -0 -0 -0 -0 -0 -0 -0 -0 -0 -0 -0 -0 -0 -0 -0 -0 -0 -0 -336 -506 -690 -0 -0 -0 -0 -765 -481 -237 -192 -232 -298 -345 -325 -296 -279 -0
-2 -5 -4 -0 -8 -0 -0 -0 -0 -0 -0 -0 -0 -0 -0 -0 -0 -0 -0 -0 -0 -0 -0 -0 -0 -0 -0 -318 -464 -567 -0 -0 -0 -31 -0 -367 -361 -254 -288 -320 -356 -0 -0 -0
-0 -0 -1 -0 -0 -0 -0 -0 -0 -0 -0 -0 -0 -0 -0 -0 -0 -0 -0 -0 -0 -0 -0 -0 -0 -0 -0 -0 -0 -0 -0 -0 -0 -0 -0 -0 -0 -0 -0 -0 -0 -0 -0 -0
-0 -0 -0 -1 -0 -0 -0 -0 -0 -0 -0 -0 -0 -0 -0 -2 -10 -0 -0 -0 -0 -0 -0 -0 -0 -0 -0 -0 -0 -0 -0 -0 -0 -0 -0 -0 -0 -0 -0 -0 -0 -0 -0 -0
-7 -0 -0 -1 -1 -0 -0 -0 -0 -0 -0 -0 -0 -0 -0 -16 -0 -0 -0 -0 -0 -0 -0 -0 -0 -0 -0 -0 -59 -0 -0 -0 -0 -0 -0 -0 -0 -0 -0 -0 -0 -0 -0 -0
-8 -31 -3 -0 -2 -0 -0 -0 -0 -0 -0 -0 -0 -0 -0 -0 -0 -0 -0 -0 -0 -0 -0 -0 -0 -0 -0 -0 -95 -202 -0 -0 -0 -0 -0 -0 -0 -0 -0 -0 -0 -0 -0 -0
-0 -0 -0 -0 -0 -0 -0 -3 -0 -0 -0 -0 -0 -0 -0 -0 -0 -0 -0 -0 -0 -0 -0 -0 -0 -0 -0 -0 -0 -85 -84 -0 -0 -0 -0 -0 -0 -0 -0 -0 -0 -0 -0 -0
-0 -0 -1 -12 -1 -0 -0 -1 -0 -0 -0 -0 -0 -0 -0 -0 -0 -0 -0 -0 -0 -0 -0 -0 -0 -0 -0 -0 -0 -0 -0 -0 -0 -0 -0 -0 -0 -0 -0 -0 -0 -0 -0 -0
-10 -38 -4 -0 -28 -11 -0 -0 -0 -0 -0 -0 -0 -0 -0 -0 -0 -0 -0 -0 -0 -0 -0 -0 -0 -0 -0 -0 -0 -0 -0 -13 -0 -0 -0 -0 -0 -0 -0 -0 -0 -0 -0 -0
-0 -0 -0 -0 -0 -19 -30 -22 -5 -43 -0 -0 -0 -0 -0 -0 -0 -0 -0 -0 -0 -0 -0 -0 -0 -0 -0 -0 -0 -0 -0 -32 -0 -0 -0 -0 -0 -0 -0 -0 -0 -0 -0 -0
-0 -0 -0 -0 -0 -0 -0 -0 -0 -0 -0 -0 -0 -0 -0 -0 -0 -0 -0 -0 -0 -0 -0 -0 -0 -0 -0 -0 -0 -0 -0 -91 -0 -0 -0 -0 -0 -0 -0 -0 -0 -0 -0 -0
Wind_Speed
8 9 15 27 20 26 24 22 31 24 10 9 21 17 17 15 15 15 11 11 9 12 16 19 18 21 22 21 22 22 20 20 15 13 13 12 13 11 10 10 14 14 12 11
6 18 18 17 15 22 29 26 26 19 15 19 13 19 18 19 14 19 16 12 14 14 10 12 18 19 22 23 23 22 23 22 20 15 14 10 10 9 9 8 10 14 14 12
14 22 15 24 20 19 26 31 30 26 13 18 16 20 12 18 20 14 20 17 17 17 15 14 14 20 24 24 24 24 24 24 22 21 12 6 4 4 4 8 10 13 15 14
15 20 24 24 13 12 13 30 31 26 14 19 18 14 25 18 17 23 20 20 20 13 15 17 16 18 25 26 23 26 25 24 22 21 18 19 16 13 13 11 9 11 13 15
9 10 17 25 30 24 9 18 25 22 21 21 15 14 14 22 20 25 24 24 21 16 18 20 17 18 24 26 23 23 25 24 23 23 22 19 18 15 10 8 10 11 11 13
24 16 8 6 20 24 18 23 19 14 17 22 26 18 15 17 32 27 23 21 17 21 17 18 20 19 19 22 23 22 25 25 24 24 23 24 24 18 13 13 11 11 8 10
10 19 13 13 10 12 20 13 6 11 10 11 24 24 27 26 22 24 22 21 20 17 16 18 17 15 14 23 24 21 23 24 24 25 24 24 23 21 22 17 14 13 11 10
6 10 12 13 12 8 18 20 4 7 10 9 19 22 32 32 8 23 14 10 15 18 19 17 17 15 16 16 22 24 25 25 25 25 25 22 23 15 14 16 13 13 13 13
5 8 4 10 11 9 2 15 13 5 4 5 6 5 35 23 22 25 12 17 14 11 12 16 13 12 14 17 24 26 27 27 26 27 24 22 20 19 18 19 16 14 14 12
5 11 4 14 14 13 3 7 7 10 7 5 4 18 22 20 29 16 7 8 7 7 8 9 8 11 14 19 23 26 28 30 28 27 24 22 23 22 19 15 18 17 16 15
4 4 10 6 7 7 6 6 6 1 5 5 3 8 23 9 6 14 17 15 12 13 12 9 9 9 11 9 16 21 24 27 26 25 24 21 19 19 17 16 17 16 14 15
6 4 6 8 2 15 3 3 9 4 6 5 5 9 6 2 2 5 5 12 17 20 22 18 10 10 9 11 13 19 20 22 23 24 23 22 19 17 18 17 17 15 17 17
2 5 5 4 3 7 5 5 6 4 2 4 8 7 5 11 12 9 8 11 11 13 17 20 13 13 12 13 13 18 19 20 19 20 22 19 17 17 19 18 17 16 16 16
6 3 6 3 5 5 8 11 9 4 3 5 6 12 3 11 11 12 11 10 15 18 16 7 5 4 6 7 8 10 10 14 11 16 21 20 18 19 18 19 16 17 18 18
3 4 2 5 9 11 15 14 11 10 5 5 5 6 9 14 5 5 11 13 18 20 21 19 8 5 3 6 6 7 7 7 8 14 18 20 19 18 15 14 14 15 16 15
4 4 3 4 6 9 16 19 14 13 15 13 12 9 6 9 8 11 12 13 14 15 17 16 18 9 4 6 6 7 8 8 9 8 8 10 14 15 15 15 15 16 15 14
5 2 4 5 4 8 8 13 16 12 14 11 7 5 11 13 12 11 8 10 13 13 15 19 15 11 9 3 5 6 7 7 10 10 8 7 8 12 13 14 15 16 15 15
10 3 2 7 7 4 6 10 11 10 14 9 8 4 9 11 7 6 4 2 11 13 15 17 17 13 8 5 4 5 5 6 7 8 8 9 9 8 9 12 13 13 13 16
14 6 2 2 3 11 13 9 5 3 6 9 15 11 10 9 4 4 8 7 3 9 13 13 15 16 15 4 2 6 5 5 6 6 7 6 9 11 12 13 13 12 12 11
8 9 5 1 3 6 6 7 11 5 3 14 3 5 8 12 5 5 9 11 11 6 1 14 16 20 16 11 4 3 5 6 7 6 7 7 8 9 10 10 11 9 10 12
1 3 9 8 7 8 10 14 4 3 5 4 6 5 0 3 6 7 7 7 12 12 9 3 10 13 17 13 4 6 5 7 4 6 6 6 6 8 10 10 10 10 10 10
4 2 3 3 7 8 4 14 6 5 7 3 2 4 5 6 5 5 5 4 2 1 5 13 6 7 8 12 8 4 6 2 7 7 8 8 7 6 7 11 10 11 12 14
3 1 5 5 6 11 13 14 18 9 8 5 4 4 4 6 5 6 5 5 1 2 3 2 7 8 3 2 6 7 8 5 7 7 7 8 8 8 9 10 11 9 11 10
4 6 4 5 4 3 11 18 13 12 7 6 5 4 3 3 6 7 7 6 6 3 5 4 4 3 4 6 4 5 7 1 6 6 8 9 9 9 10 8 9 9 9 9
4 6 7 6 10 11 13 11 15 13 8 6 6 3 6 4 5 5 4 5 5 6 7 5 5 6 7 5 6 5 5 5 5 5 6 7 7 10 9 8 9 9 10 13
5 7 5 6 7 4 12 11 9 7 4 7 7 9 8 6 6 5 6 5 5 6 6 7 7 5 7 8 6 2 1 6 6 5 5 7 7 8 8 7 4 6 5 9
Wind_Direction
325 258 220 216 210 241 233 231 228 242 203 210 236 237 236 254 231 232 221 223 228 190 210 208 199 187 191 186 183 183 181 179 174 180 178 185 192 193 197 195 192 196 196 188
307 253 243 272 224 243 237 235 238 251 225 212 222 228 223 238 237 228 217 221 221 225 214 193 207 186 188 187 187 185 185 179 185 184 186 188 191 199 196 187 191 195 195 186
245 255 255 240 267 246 245 228 233 227 210 231 225 248 237 233 235 242 233 221 220 213 216 222 190 191 189 189 188 187 185 184 187 189 177 152 118 113 163 184 191 193 192 187
252 268 239 234 234 221 278 226 239 240 228 229 197 239 226 228 230 227 235 227 228 217 223 221 207 188 190 194 189 186 186 185 187 183 182 183 186 186 201 194 194 194 194 191
229 282 249 218 225 235 249 281 234 240 222 244 226 230 225 214 225 226 223 232 228 219 218 224 216 190 193 194 189 189 188 185 184 183 187 187 190 200 182 188 178 192 194 199
257 266 262 314 244 226 231 265 282 271 228 224 221 229 228 207 216 223 225 223 223 224 215 214 214 207 190 197 193 187 188 190 187 186 188 191 196 191 186 183 184 193 193 198
272 242 227 218 265 202 211 206 212 207 204 221 214 215 237 210 223 216 216 224 223 209 210 214 213 213 189 194 195 189 188 191 191 190 190 193 198 192 194 188 185 178 191 200
334 319 173 193 228 204 216 208 203 213 192 189 218 208 242 226 204 228 227 212 209 203 209 202 207 202 204 187 195 186 189 192 191 190 193 194 199 194 195 191 190 191 192 198
320 273 327 254 194 198 213 219 196 337 334 261 181 223 253 240 233 239 229 224 220 214 217 225 214 206 200 186 190 190 190 194 190 192 193 195 196 194 193 192 191 195 192 189
287 290 30 315 184 211 200 144 174 208 202 227 255 205 236 193 223 226 234 249 265 272 231 239 231 212 207 197 193 195 190 190 192 194 193 195 193 194 194 186 192 193 192 181
269 252 288 354 203 234 196 220 189 224 209 225 206 240 237 231 192 224 247 248 252 257 249 234 232 217 212 190 195 201 195 194 196 193 193 193 194 194 190 192 193 191 184 180
221 211 277 277 195 337 189 231 205 164 186 222 228 267 305 150 227 205 244 258 245 240 250 245 231 229 212 213 192 192 195 201 198 194 190 190 191 186 186 192 188 183 186 183
309 284 325 341 14 35 1 350 313 291 309 187 191 251 144 52 46 25 47 16 2 354 286 263 243 225 223 219 193 197 195 197 193 188 189 187 182 183 186 186 184 181 178 181
274 267 172 237 232 290 308 316 312 303 239 209 216 268 27 32 16 3 3 19 22 3 351 248 134 181 214 180 186 182 185 185 168 177 185 185 180 184 186 187 178 177 178 174
272 265 275 253 255 258 263 272 286 297 288 260 45 288 301 342 325 343 16 7 29 8 356 0 359 9 35 77 109 108 109 121 148 167 175 184 187 186 180 175 175 177 179 181
301 310 295 275 266 272 266 265 261 261 272 265 270 281 290 352 358 2 21 348 20 5 345 349 4 350 36 74 67 81 89 91 96 106 143 170 175 173 172 172 176 174 177 171
257 260 343 266 292 310 263 247 234 246 238 217 232 272 25 325 323 331 359 358 353 339 336 343 347 344 326 112 124 106 105 103 102 104 97 106 140 163 169 168 168 168 169 159
237 202 228 288 333 325 243 315 282 244 253 249 268 251 285 260 265 308 155 84 320 335 341 337 341 342 348 303 79 102 94 94 103 111 127 135 141 139 142 157 169 165 164 168
212 192 242 225 235 283 299 298 11 212 293 253 235 215 209 264 199 294 148 182 129 359 345 325 331 322 337 360 284 126 122 122 119 141 139 142 153 158 160 167 168 164 159 163
170 197 187 114 208 251 244 329 324 305 337 340 211 195 227 182 223 233 200 179 153 133 96 328 332 325 341 334 136 266 167 156 162 166 155 149 150 147 155 153 151 150 154 151
197 167 200 215 244 278 282 288 327 123 214 301 350 345 173 181 220 176 218 183 171 168 168 192 300 311 330 328 215 192 165 217 151 133 134 142 153 154 145 133 135 132 126 127
217 254 197 173 217 257 310 317 15 323 306 271 51 10 357 335 283 277 256 215 105 287 201 154 224 257 290 340 346 322 256 158 148 152 153 148 147 144 145 142 142 139 145 138
300 125 300 192 219 327 313 320 307 303 284 306 325 326 306 312 321 315 290 292 218 234 260 124 182 225 276 38 12 340 317 188 160 156 152 149 147 144 150 151 153 143 150 152
256 158 217 312 231 263 274 297 287 288 267 304 309 307 36 4 338 329 313 306 289 254 256 191 150 52 325 334 345 314 319 145 156 165 158 153 155 152 154 158 161 156 162 159
227 306 250 261 269 253 256 240 264 286 307 317 330 313 308 297 310 288 298 314 314 317 312 290 196 195 192 240 294 301 331 154 161 164 154 163 161 165 164 169 173 176 183 176
213 221 195 219 241 226 271 272 283 308 353 352 350 346 345 355 329 311 306 293 295 306 306 314 314 244 214 186 211 220 294 170 153 153 161 172 172 172 170 159 110 48 150 140